Regional Weather Roundup
Issued by NWS Newport/Morehead, NC

Current Version | Previous Version | Text Only | Print | Product List | Glossary On
Versions: 1 2 3 4 5 6 7 8 9 10 11 12 13 14 15 16 17 18 19 20 21 22 23 24 25 26 27 28 29 30 31 32 33 34 35 36 37 38 39 40 41 42 43 44 45 46 47 48 49 50
000
ASUS42 KMHX 231825
RWRMHX
WEATHER ROUNDUP FOR EASTERN NORTH CAROLINA
NATIONAL WEATHER SERVICE NEWPORT/MOREHEAD CITY NC
200 PM EDT MON APR 23 2018

NOTE: "FAIR" INDICATES FEW OR NO CLOUDS BELOW 12,000 FEET
WITH NO SIGNIFICANT WEATHER AND/OR OBSTRUCTIONS TO VISIBILITY

NCZ015>017-031-032-045>047-102-103-231900-
NORTH COAST

CITY           SKY/WX    TMP DP  RH WIND       PRES   REMARKS
EDENTON        CLOUDY    67  53  62 E9G16     30.38S
ELIZABETH CITY FAIR      68  49  50 E18G26    30.40S
KITTY HAWK     FAIR      61  48  61 E10       30.39S
MANTEO         PTSUNNY   64  50  58 SE10G18   30.40S

$$

NCZ045>047-081-094-103-104-231900-
CENTRAL COAST

CITY           SKY/WX    TMP DP  RH WIND       PRES   REMARKS
FRISCO         PTSUNNY   68  53  58 E14       30.37S

$$

NCZ095-097-098-100-101-231900-
SOUTHERN COAST

CITY           SKY/WX    TMP DP  RH WIND       PRES   REMARKS
BEAUFORT       FAIR      68  52  56 E16G23    30.33F
CEDAR ISLAND   NOT AVBL
JACKSONVILLE   CLOUDY    68  52  56 E22G28    30.31F
PINEY ISLAND   NOT AVBL
WILMINGTON     LGT RAIN  66  53  63 E17G26    30.27F


$$

NCZ011>013-027>030-043-044-078>080-089-090>093-098-231900-
COASTAL PLAIN

CITY           SKY/WX    TMP DP  RH WIND       PRES   REMARKS
AHOSKIE        PTSUNNY   67  48  50 E9        30.36F
CLINTON        FAIR      67  52  59 E9G16     30.28F
ELIZABETHTOWN  LGT RAIN  62  56  80 MISG      30.26S
GOLDSBORO      FAIR      68  50  53 E13       30.28F
GREENVILLE     FAIR      68  48  49 SE16G22   30.35S
HAVELOCK       CLOUDY    69  52  54 E17G25    30.34S
KENANSVILLE    FAIR      66  50  55 E9G24     30.30F
KINSTON        PTSUNNY   68  52  56 E14G21    30.33F
NEW BERN       FAIR      67  51  56 E13G24    30.34S
RICHLANDS      PTSUNNY   68  52  56 E8G25     30.32S
ROCKY MOUNT    FAIR      66  48  52 E9G21     30.33F
WASHINGTON     CLOUDY    67  48  51 SE14G24   30.36S
WHITEVILLE     LGT RAIN  63  59  87 E12G20    30.24S

$$

AMZ130-135-150-152-154-156-158-170-250-252-270-ANZ085-086-088-633-658-670-231900-
MARINE OBSERVATIONS

STATION/POSITION TIME  TEMP    WIND        PRES    WAVE   SWELL
                       AIR SEA DIR/SP/G            HT/PER HT/PER
                 (UTC) (F)     (DEG/KT/KT) (MB)    (FT/S) (FT/S)
CHESAPEAKE LIGHT NOT AVBL
64 E VA BEACH    1750   54 50   90/ 12/ 14 1030.9    3/ 4   2/ 8
DUCK             1800   57 54   80/ 15/ 16 1029.1
2 E DUCK         1800      54                N/A     3/ 4
OREGON INLET     1754   59 57   60/ 10/ 13 1029.1
13E OREGON INLT  1748      53                N/A     3/ 5   3/ 5
HATTERAS CG      1800   65     110/ 10/ 15 1028.0
DIAMOND BUOY     1810   67 72  100/ 19/ 25 1028.4
CAPE LOOKOUT     NOT AVBL
BEAUFORT LAB     1800   66 63  110/ 13/ 19 1027.1
30 SE NEW RVR IN 1808   67 65  110/ 17/ 23 1026.0
30 SE NEW RVR IN 1800      65                N/A     7/ 7
27 SE WRIGHTSVLE 1808   67 65  120/ 23/ 31 1024.7
5 SE WRIGHTSVLE  1808   64 61  110/ 12/ 17 1024.5
225 S CAPE HAT   1810   69 72  110/ 19/ 25 1024.6
41 SE CHARLESTON 1810   67 67  110/ 23/ 31 1018.7

$$




USA.gov is the U.S. government's official web portal to all federal, state and local government web resources and services.